Location: Goengarijp
(53.0114°N, 5.7716°E)
Time: 13:06:15
(UTC+00:00)

Daily predictions for brighter satellites

Satellite Brightness Start Highest point End
(mag) Time Altitude Azimuth Time Altitude Azimuth Time Altitude Azimuth
BREEZE-M DEB (TANK) 3.7 19:12:03 10° SW 19:15:47 55° SSE 19:27:54 10° E
Ariane Rocket 3.0 19:21:26 10° SSE 19:26:29 79° ENE 19:31:33 10° NNW
Cosmos 614 Rocket 4.1 19:22:51 10° S 19:27:49 52° ESE 19:32:47 10° NNE
ATLAS 3B R/B 3.6 19:22:31 10° NW 19:29:11 48° WSW 19:36:06 10° SSE
Terra 3.9 19:26:47 10° E 19:29:12 14° NE 19:31:35 10° NNE
COSMOS 2487 3.9 19:26:00 10° SW 19:29:15 42° WNW 19:32:33 10° NNE
FALCON 9 DEB 3.3 19:26:07 10° SW 19:29:27 52° SSE 19:32:49 10° E
Cosmos 2251 Rocket 3.5 19:24:15 10° SSW 19:29:34 71° ESE 19:34:54 10° NNE
Cosmos 2279 Rocket 4.1 19:28:42 10° S 19:34:44 58° E 19:40:49 10° NNE
Cosmos 1980 3.9 19:31:32 10° NNW 19:37:15 78° WSW 19:42:55 10° SSE
Cosmos 2026 Rocket 4.4 19:31:26 10° NNW 19:37:29 68° W 19:43:32 10° S
USA 102 0.0 19:37:32 59° ENE 19:37:37 62° NE 20:26:34 10° NW
SL-16 R/B 2.7 19:32:21 10° NNW 19:37:53 48° NE 19:43:22 10° SE
SME Rocket 3.8 19:35:04 10° NNE 19:38:53 61° WNW 19:43:38 10° SSW
SPOT 1/Viking Rocket 4.3 19:34:10 10° SE 19:38:56 38° ENE 19:43:44 10° N
SPOT 5 4.5 19:35:30 10° ESE 19:38:56 21° NE 19:42:31 10° N
Cosmos 2151 3.3 19:35:04 10° N 19:39:18 51° ENE 19:43:29 10° SSE
MOS 1 4.4 19:34:14 10° SSE 19:39:53 82° WSW 19:45:36 10° NNW
Cosmos-2242 4.0 19:37:09 10° SSE 19:40:48 28° E 19:44:28 10° NNE
USA 215 3.4 19:35:02 10° ESE 19:41:35 80° NNE 19:48:09 10° WNW
SPOT 3 Rocket 3.6 19:41:37 10° SSE 19:46:45 66° ENE 19:51:54 10° NNW
Cosmos 1455 3.3 19:44:57 10° SSW 19:48:35 47° WNW 19:52:13 10° N
COSMOS 2455 4.0 19:45:18 10° SSE 19:49:44 22° ESE 19:54:11 10° ENE
Cosmos 2219 Rocket 4.2 19:46:53 10° NW 19:51:27 26° WSW 19:56:01 10° SSW
ATLAS 5 CENTAUR R/B 3.8 19:47:55 10° WNW 19:51:46 27° NNW 19:56:09 10° NE
SL-4 R/B 3.3 19:48:28 10° SSW 19:52:00 24° SE 19:55:42 10° E
USA 186 4.3 19:52:39 10° SSW 19:55:13 21° W 19:57:41 10° NW
Cosmos 1076 Rocket 3.9 19:51:13 10° NNW 19:55:33 67° W 19:59:50 10° S
Cosmos 2266 Rocket 4.1 19:49:36 10° N 19:55:58 63° ENE 20:02:11 10° SSE
ERS-1 Rocket 4.1 19:53:53 12° ESE 19:57:52 30° ENE 20:02:12 10° N
IGS 5A 3.5 19:54:35 10° SSE 19:58:43 70° ENE 20:02:52 10° N
OBJECT-B 2.8 19:57:03 10° SSW 19:59:54 28° W 20:02:47 10° NNW
Landsat 7 3.9 19:55:26 10° SSE 20:00:09 68° ENE 20:04:54 10° N
Cosmos 44 3.9 19:59:24 10° SW 20:04:36 70° NW 20:10:03 10° NE
Cosmos 2221 4.4 20:05:05 12° ESE 20:06:27 14° E 20:08:37 10° NE
Cosmos 2344 3.6 19:59:29 10° SW 20:06:55 86° SE 20:15:13 10° NE
ARIANE 5 R/B 3.2 20:04:04 14° SE 20:07:27 42° ENE 20:11:36 10° N
USA 245 3.3 20:05:50 16° SE 20:08:14 41° ENE 20:10:59 10° N
Cosmos 407 Rocket 3.5 20:03:18 10° S 20:08:22 63° ESE 20:13:32 10° NNE
Meteor 2-3 Rocket 3.8 20:06:14 10° NNW 20:12:03 84° ENE 20:17:45 10° SSE
Orbus 7S? 3.5 20:09:22 10° WSW 20:12:30 85° SSE 20:19:04 10° ENE
IRIDIUM 104 4.4 20:07:19 10° S 20:12:33 87° W 20:17:48 10° N
Cosmos 1023 Rocket 4.4 20:08:26 10° S 20:13:25 63° ESE 20:18:29 10° NNE
MetOp-B 4.1 20:09:17 10° SSE 20:14:35 83° ENE 20:20:00 10° NNW
RESURS DK-1 4.0 20:11:50 10° WSW 20:15:44 39° NW 20:19:41 10° NNE
Cosmos 44 Rocket 4.3 20:15:41 10° S 20:19:55 27° ESE 20:24:14 10° ENE
Cosmos 1140 Rocket 3.4 20:16:32 10° SSW 20:21:38 70° ESE 20:26:45 10° NNE
CZ-2C R/B 3.8 20:18:51 10° NNE 20:23:14 54° E 20:27:34 10° S
Cosmos 1812 Rocket 3.8 20:19:05 10° SSW 20:23:32 73° WNW 20:28:02 10° N
Cosmos 2237 Rocket 3.3 20:19:38 10° NW 20:24:52 40° WSW 20:30:04 10° S
Cosmos 1954 Rocket 4.3 20:20:56 10° S 20:25:48 44° ESE 20:30:42 10° NE
Timation 2 Rocket 4.0 20:22:11 10° SSW 20:28:38 64° ESE 20:34:49 10° NE
Cosmos 1818 4.3 20:26:05 10° WSW 20:31:28 58° NW 20:36:55 10° NE
Cosmos 1766 Rocket 3.5 20:29:02 10° N 20:33:24 75° E 20:36:21 20° SSE
USA 229 DEB 4.1 20:26:24 10° NW 20:33:29 64° NE 20:39:35 17° ESE
USA 229 4.1 20:26:30 10° NW 20:33:35 64° NE 20:39:42 17° ESE
Cosmos 2263 Rocket 3.7 20:34:38 15° ESE 20:35:04 16° E 20:38:15 10° ENE
BREEZE M DEB (TANK) 2.9 20:28:23 10° WSW 20:35:08 44° S 20:36:34 26° ESE
Spot 2 Rocket 3.5 20:32:07 18° SSE 20:35:57 78° ENE 20:41:02 10° NNW
CARTOSAT-1 3.6 20:33:27 22° SSE 20:36:11 64° ENE 20:40:29 10° N
Cosmos 1633 4.1 20:36:22 10° NNW 20:39:38 33° W 20:42:52 10° SSW
Cosmos 482 Debris 3.0 20:38:49 10° W 20:40:38 48° SW 20:40:38 48° SW
Cosmos 909 Rocket 4.5 20:35:17 10° SW 20:41:31 67° NW 20:48:16 10° NE
FALCON 9 DEB 3.5 20:39:04 10° SW 20:41:38 33° SSE 20:41:38 33° SSE
Okean 3 Rocket 3.6 20:38:00 10° N 20:42:34 90° NNE 20:45:38 20° S
Cosmos 2227 Rocket 2.1 20:37:40 10° SSW 20:43:19 78° ESE 20:49:01 10° NNE
Cosmos 2082 3.9 20:38:13 10° S 20:43:33 47° ESE 20:48:55 10° NE
FALCON 9 DEB 3.2 20:43:35 10° SW 20:46:27 40° SSE 20:46:28 40° SSE
Lacrosse 5 rocket 1.9 20:42:30 10° WNW 20:46:42 59° NNE 20:49:59 17° E
CZ-4C R/B 4.1 20:43:19 10° WNW 20:48:37 34° N 20:54:57 10° ENE
Cosmos 468 Rocket 3.9 20:43:32 10° NNW 20:48:42 84° ENE 20:51:46 25° SSE
Cosmos 2297 Rocket 2.3 20:44:20 10° SW 20:50:00 80° WNW 20:55:43 10° NNE
Cosmos 1869 3.2 20:47:58 21° S 20:50:33 71° E 20:54:29 10° NNE
Resurs 01 Rocket 3.1 20:46:49 10° SSW 20:50:53 35° W 20:55:00 10° NNW
NOSS 3-1 (A) 4.1 20:44:23 10° NW 20:51:27 71° NE 20:57:36 20° ESE
Meteor 1-4 Rocket 2.4 20:50:30 28° S 20:52:10 66° E 20:55:43 10° NNE
Cosmos 1603 4.2 20:47:00 10° NNW 20:52:36 49° NE 20:55:59 23° ESE
ATLAS 2AS CENTAUR R/B 4.0 20:45:30 10° W 20:53:07 49° NNW 21:00:26 10° NE
Cosmos 841 Rocket 3.9 20:48:24 10° NNW 20:53:30 50° ENE 20:56:15 25° ESE
FALCON 9 DEB 3.1 20:55:32 10° SW 20:58:12 46° S 20:58:12 46° S
Cosmos 2219 3.4 20:53:39 10° SW 20:59:16 76° WNW 21:04:57 10° NNE
Cosmos 1763 Rocket 3.4 20:56:27 10° NNW 21:01:33 82° WSW 21:04:17 28° SSE
Cosmos 2084 Rocket 3.2 20:58:16 10° SW 21:02:15 85° SE 21:06:23 10° NE
Terra 1.9 21:03:52 31° SE 21:06:08 68° ENE 21:10:52 10° N
Cosmos 1190 Rocket 4.4 21:00:59 10° SW 21:06:10 65° WNW 21:11:23 10° NNE
FALCON 9 DEB 3.0 21:02:51 10° W 21:06:17 88° N 21:07:41 34° E
Meteor 2-8 Rocket 4.4 21:02:56 12° S 21:08:43 90° E 21:14:53 10° NNE
Cosmos 540 Rocket 3.5 21:04:12 10° NNW 21:09:20 69° ENE 21:11:41 32° SE
BREEZE-M DEB (TANK) 4.3 21:08:17 10° WSW 21:08:46 12° SW 21:08:46 12° SW
Cosmos 921 Rocket 3.5 21:06:29 10° NNW 21:10:49 47° ENE 21:12:21 33° ESE
NOSS 3-1 (C) 4.1 21:08:05 10° NW 21:15:19 76° SW 21:20:23 27° SSE
SPOT 5 2.9 21:14:08 30° S 21:16:27 76° WSW 21:21:23 10° NNW
Cosmos-2242 4.4 21:14:11 10° SW 21:18:14 38° WNW 21:22:17 10° N
Meteor 2-2 Rocket 4.3 21:15:41 27° S 21:18:51 64° E 21:24:29 10° NNE
FALCON 9 DEB 4.3 21:17:20 10° WSW 21:18:55 26° SW 21:18:55 26° SW
SL-16 R/B 3.2 21:16:41 10° NW 21:21:57 40° WSW 21:25:19 20° SSW
Cosmos 1174 4.5 21:17:15 10° NW 21:21:58 51° NE 21:23:25 33° E
Cosmos 1842 Rocket 3.6 21:20:26 38° SSE 21:22:00 66° E 21:26:28 10° NNE
Cosmos 676 Rocket 4.2 21:19:23 10° SSW 21:24:34 72° WNW 21:29:47 10° NNE
USA 215 3.6 21:21:35 28° SSE 21:24:54 52° SW 21:31:17 10° WNW
SL-08 ROCKET BODY 4.3 21:22:35 10° N 21:28:42 83° E 21:31:37 32° SSE
Cosmos 1437 Rocket 4.3 21:29:54 21° ENE 21:29:54 21° ENE 21:32:14 10° NE
SL-4 R/B 2.3 21:26:39 10° WSW 21:31:05 59° SSE 21:33:32 27° E
Cosmos 1408 Rocket 4.0 21:28:50 10° NNW 21:33:05 55° W 21:34:52 31° SSW
COSMOS 2455 2.8 21:28:54 10° SW 21:34:56 90° SSE 21:41:01 10° NE
ERS-1 Rocket 3.5 21:33:53 26° SSW 21:36:27 52° W 21:41:22 10° NNW
ATLAS 5 CENTAUR R/B 3.8 21:33:32 10° NW 21:37:45 28° NNE 21:42:37 10° ENE
Cosmos 1862 3.8 21:36:29 10° NNW 21:40:21 52° W 21:41:30 38° SSW
Sich 1 3.4 21:36:37 10° N 21:40:46 47° ENE 21:41:28 42° ESE
Cosmos 1805 Rocket 3.6 21:36:48 10° N 21:41:08 61° ENE 21:41:58 50° ESE
Cosmos 2221 2.5 21:41:54 40° SSW 21:43:23 80° WNW 21:47:41 10° N
ARIANE 5 R/B 4.2 21:41:37 17° SW 21:44:03 28° W 21:47:52 10° NW
Meteor 2-15 Rocket 4.4 21:43:55 25° SSW 21:47:41 82° WNW 21:53:48 10° N
Cosmos 1943 3.1 21:42:26 10° NNW 21:48:06 84° WSW 21:50:06 42° SSE
Cosmos 1745 Rocket 3.9 21:44:25 10° N 21:50:48 85° E 21:53:26 38° SSE
Cosmos 1570 Rocket 3.9 21:46:17 10° NNW 21:51:37 86° WSW 21:53:15 46° SSE
SeaSat 1 3.6 21:47:39 10° NE 21:51:19 27° E 21:51:19 27° E
Cosmos 1743 Rocket 3.7 21:47:38 10° NNW 21:51:57 64° W 21:53:02 46° SSW
Cosmos 1709 Rocket 4.2 21:49:47 10° N 21:55:57 60° ENE 21:58:10 39° SE
NOSS 2-1 (C) 2.9 21:56:12 77° NNE 21:56:12 77° NNE 21:59:38 10° NE
Cosmos 44 Rocket 3.6 21:55:57 10° SW 22:01:04 72° NW 22:06:20 10° NE
Spot 4 4.2 22:00:15 44° ESE 22:01:25 55° ENE 22:06:11 10° N
Cosmos 1633 Rocket 3.7 21:57:34 10° N 22:01:42 40° ENE 22:02:12 39° E
NOSS 2-1 (D) 3.0 22:02:34 74° NW 22:02:36 75° NW 22:06:15 10° NE
TSX-5 4.2 22:01:04 17° SW 22:04:31 64° NW 22:08:14 10° NNE
BREEZE-M DEB (TANK) 4.4 22:00:32 10° W 22:06:19 26° SW 22:06:19 26° SW
Cosmos 1606 2.5 22:06:56 85° WSW 22:06:59 85° WNW 22:10:46 10° N
Cosmos 1741 Rocket 4.0 22:05:12 30° SSW 22:07:55 80° WNW 22:13:15 10° NNE
S3M 4.0 22:05:25 38° S 22:08:03 80° E 22:14:29 10° NNE
Cosmos 1500 Rocket 4.4 22:05:41 10° NNW 22:09:56 44° W 22:11:06 36° SW
Cosmos 1850 Rocket 4.1 22:08:07 28° SW 22:10:56 73° WNW 22:16:14 10° NNE
Cosmos 1666 Rocket 3.7 22:08:03 10° N 22:12:31 60° ENE 22:12:59 57° ESE
Cosmos 2263 Rocket 2.0 22:16:16 44° SSW 22:18:06 78° ESE 22:23:42 10° NNE
H-2A R/B 4.4 22:15:29 10° N 22:19:31 44° WNW 22:21:09 29° WSW
Aureole 1 Rocket 3.4 22:17:34 33° SW 22:19:58 75° WNW 22:24:18 10° NNE
GENESIS II 4.1 22:16:53 10° NW 22:20:39 82° NW 22:20:39 82° NW
Cosmos 968 Rocket 4.3 22:22:53 35° E 22:22:53 35° E 22:27:33 10° NE
Cosmos 1242 Rocket 4.0 22:23:55 28° ENE 22:23:55 28° ENE 22:26:14 10° NNE
NOSS 2-2 (D) 4.3 22:18:06 10° NW 22:22:59 71° NE 22:25:44 35° ESE
USA 229 DEB 4.3 22:17:31 10° NW 22:24:27 49° WSW 22:27:00 36° S
USA 229 4.3 22:17:37 10° NW 22:24:34 50° SW 22:27:07 37° S
Lacrosse 5 rocket 1.7 22:21:40 10° WNW 22:25:34 54° WSW 22:25:34 54° WSW
Cosmos 2227 Rocket 4.1 22:23:06 10° W 22:28:00 29° NW 22:32:55 10° NNE
Cosmos 1782 3.7 22:28:48 38° ENE 22:28:48 38° ENE 22:32:03 10° NNE
Cosmos 1844 Rocket 3.8 22:30:56 26° E 22:30:56 26° E 22:35:12 10° NE
Cosmos 2208 Rocket 4.4 22:26:30 10° NNW 22:31:42 53° WSW 22:32:47 45° SSW
SL-24 DEB 4.1 22:32:22 71° SSE 22:32:52 87° E 22:37:31 10° N
Cosmos 1151 Rocket 3.4 22:34:17 49° E 22:34:17 49° E 22:38:15 10° NNE
Cosmos 2297 Rocket 4.5 22:30:25 10° W 22:34:58 24° NW 22:39:32 10° NNE
ALOS 2 2.7 22:35:37 61° E 22:35:56 63° ENE 22:40:17 10° N
Cosmos 1603 4.5 22:31:22 10° NW 22:36:38 39° WSW 22:37:52 34° SW
CZ-4C R/B 3.9 22:32:43 10° NW 22:38:44 41° NNE 22:45:56 10° E
Terra 3.7 22:42:44 17° WSW 22:44:21 20° W 22:47:51 10° NW
Cosmos 1933 3.3 22:45:09 78° WNW 22:45:09 78° WNW 22:49:10 10° N
ATLAS 2AS CENTAUR R/B 4.3 22:38:37 10° WNW 22:45:45 37° N 22:52:31 10° ENE
Cosmos 2082 Rocket 4.4 22:45:16 10° NNW 22:49:32 21° NNE 22:53:47 10° E
Cosmos 1602 4.1 22:46:37 10° NNW 22:50:00 58° WNW 22:50:00 58° WNW
Cosmos 836 Rocket 4.4 22:46:34 10° NNW 22:51:55 89° WSW 22:52:46 65° SSE
Cosmos 1833 Rocket 4.3 22:46:57 10° NNW 22:51:57 30° NE 22:56:05 14° E
Cosmos 1486 Rocket 4.2 22:57:26 53° ESE 22:57:40 53° ESE 23:02:52 10° NNE
Meteor 1-5 Rocket 4.3 22:54:38 10° N 23:00:23 70° ENE 23:01:31 55° SE
Meteor 1-14 Rocket 4.3 22:57:15 10° NNW 23:03:17 84° WSW 23:04:37 57° S
Cosmos 1437 Rocket 3.7 23:05:15 38° WNW 23:05:18 38° WNW 23:08:55 10° N
USA 290 3.7 23:04:08 10° NNW 23:06:25 36° N 23:06:25 36° N
SL-4 R/B 3.0 23:06:01 10° W 23:09:09 42° W 23:09:09 42° W
Meteor 2-6 Rocket 4.4 23:11:23 49° ESE 23:11:57 51° E 23:17:11 10° NNE
Cosmos 2184 Rocket 4.0 23:06:57 10° N 23:13:21 81° E 23:14:58 53° SSE
NOSS 2-2 (C) 4.3 23:08:20 10° NW 23:13:25 68° SW 23:14:35 56° S
NOSS 2-2 (E) 4.5 23:09:24 10° NW 23:14:37 60° SW 23:15:39 53° S
Cosmos 1869 Rocket 4.4 23:11:31 10° N 23:15:39 40° ENE 23:15:55 39° E
Cosmos 2315 Rocket 4.2 23:16:01 41° SW 23:18:10 64° WNW 23:24:32 10° N
Cosmos 1515 Rocket 3.7 23:19:41 67° E 23:19:41 67° E 23:23:58 10° NNE
Cosmos 2278 Rocket 4.3 23:19:29 13° E 23:19:58 13° E 23:22:28 10° ENE
Cosmos 1666 3.2 23:16:49 10° N 23:20:00 58° NNE 23:20:00 58° NNE
ATLAS 5 CENTAUR R/B 2.6 23:18:08 10° NW 23:23:17 59° NE 23:27:06 23° ESE
USA 305 4.5 23:25:52 25° E 23:25:52 25° E 23:27:45 10° ENE
Cosmos 783 Rocket 4.4 23:19:42 10° NNW 23:25:03 83° ENE 23:25:50 65° SE
SeaSat 1 2.8 23:24:49 10° NNE 23:29:43 62° NW 23:31:04 44° WSW
Cosmos 1470 Rocket 4.1 23:28:07 10° NNW 23:32:15 49° W 23:32:15 49° W
Nimbus 7 Rocket 4.3 23:32:40 10° NNE 23:38:36 88° ESE 23:39:53 57° SSW
Iridium 4 Rocket 4.0 23:38:02 43° WSW 23:38:58 48° W 23:44:17 10° N
Cosmos 1633 Rocket 4.5 23:35:41 10° NNW 23:39:17 26° W 23:39:17 26° W
Cosmos 2074 Rocket 4.0 23:33:30 10° NNW 23:39:45 68° W 23:41:12 52° SSW
USA 306 4.0 23:43:12 36° E 23:43:12 36° E 23:45:48 10° ENE
COSMOS 2406 3.7 23:36:46 10° NNW 23:42:23 55° NE 23:44:55 31° ESE
Cosmos 1844 3.7 23:41:40 61° SSE 23:42:26 68° ESE 23:48:07 10° NE
Cosmos 1503 Rocket 3.8 23:44:44 69° SSE 23:45:08 73° ESE 23:50:19 10° NNE
USA 281 3.1 23:43:08 43° SSE 23:45:32 87° ENE 23:52:10 10° NNW
Cosmos 1812 3.2 23:48:00 57° NNW 23:48:00 57° NNW 23:51:20 10° N
Cosmos 1933 Rocket 4.0 23:44:21 10° NNW 23:48:19 49° W 23:48:19 49° W
